www.pogodaiklimat.ru

Погода и климат >> Архив погоды >> Норвегия >> Эдж


ПОГОДА на Эдже

  • Прогноз погоды на Эдже
  • Монитор погоды на Эдже

АРХИВ ПОГОДЫ на Эдже

Время (UTC), дата Ветер
(напр.,м/с)
 
Видим.   Явления Облачность Т
(С)
Тd
(С)
f
(%)
Тe
(С)
Тes
(С)
Комфортность P
(гПа)
Po
(гПа)
Тmin
(С)
Tmax
(С)
R
(мм)
R24
(мм)
S
(см)
13 9.06 С 6
{7}
н/о н/о -0.4 -1.3 94 -7 -7 1024.1 1022.5
14 9.06 С 5
{7}
н/о н/о -0.5 -1.4 94 -7 -7 1024.2 1022.6
15 9.06 С 4
{5}
н/о н/о -0.4 -1.5 92 -6 -6 1024.1 1022.5
16 9.06 С 2
{5}
н/о н/о -0.2 -1.9 88 -4 -4 1024.3 1022.7
17 9.06 СЗ 2
{3}
н/о н/о -0.1 -1.8 88 -4 -4 1024.1 1022.5
18 9.06 СЗ 1
{7}
н/о н/о -0.1 -1.6 90 -2 -2 1024.2 1022.6 -0.6 +1.4
19 9.06 СЗ 2
{2}
н/о н/о -0.1 -1.5 90 -4 -4 1024.2 1022.6
20 9.06 СЗ 2
{3}
н/о н/о -0.1 -1.5 90 -4 -4 1024.0 1022.4
21 9.06 СЗ 1
{3}
н/о н/о -1.0 -1.5 96 -3 -3 1024.2 1022.6
22 9.06 С 3
{3}
н/о н/о -1.1 -2.2 92 -6 -6 1024.0 1022.4
23 9.06 З 2
{3}
н/о н/о -1.2 -2.1 94 -5 -5 1024.0 1022.4
00 10.06 З 1
{3}
н/о н/о -1.0 -1.9 94 -3 -3 1023.7 1022.1
01 10.06 СЗ 2
{2}
н/о н/о -0.5 -1.9 90 -4 -4 1023.6 1022.0
02 10.06 СЗ 1
{2}
н/о н/о -0.5 -1.5 93 -3 -3 1023.7 1022.1
03 10.06 СЗ 2
{4}
н/о н/о -0.2 -1.5 91 -4 -4 1023.5 1021.9
04 10.06 СЗ 2
{4}
н/о н/о -0.2 -2.0 88 -4 -4 1023.3 1021.7
05 10.06 С 3
{5}
н/о н/о -0.2 -2.3 86 -5 -5 1023.0 1021.4
06 10.06 СЗ 3
{5}
н/о н/о 0.0 -2.1 86 -5 -5 1023.0 1021.4 -1.4 +0.2
07 10.06 СЗ 4
{5}
н/о н/о -0.1 -1.9 88 -6 -6 1023.1 1021.5
09 10.06 С 5
{7}
н/о н/о -0.2 -1.9 88 -6 -6 1023.4 1021.8
10 10.06 С 6
{8}
н/о н/о -0.3 -2.0 88 -7 -7 1023.6 1022.0
11 10.06 С 6
{7}
н/о н/о -0.7 -2.5 88 -8 -8 1024.0 1022.4
12 10.06 С 6 н/о н/о -0.8 -3.3 83 -8 -8 1024.1 1022.5
13 10.06 С 5
{7}
н/о н/о -0.8 -3.3 83 -7 -7 1024.3 1022.7
14 10.06
{6}
н/о н/о -0.8 -3.0 85 1024.4 1022.8
15 10.06 С 6
{6}
н/о н/о -1.0 -2.8 88 -8 -8 1024.6 1023.0
16 10.06 С 5
{7}
н/о н/о -0.9 -2.8 87 -7 -7 1025.0 1023.4
17 10.06 С 4
{6}
н/о н/о -1.0 -3.1 86 -7 -7 1025.3 1023.7
18 10.06 С 2
{7}
н/о н/о -1.2 -2.9 88 -5 -5 1025.4 1023.8
19 10.06 С 1
{3}
н/о н/о -1.3 -2.8 90 -4 -4 1025.5 1023.9
21 10.06 З 2
{3}
н/о н/о -1.5 -2.8 91 -5 -5 1025.7 1024.1
22 10.06 З 3
{3}
н/о н/о -2.8 -2.9 99 -8 -8 1025.7 1024.1
23 10.06 ЮЗ 3
{4}
н/о н/о -2.2 -2.8 96 -7 -7 1025.7 1024.1
00 11.06 ЮЗ 5 н/о н/о -1.6 -3.0 90 -8 -8 1025.3 1023.7
01 11.06 З 6
{6}
н/о н/о -1.2 -2.7 90 -8 -8 1025.2 1023.6
02 11.06 З 6
{8}
н/о н/о -0.6 -2.3 88 -7 -7 1025.0 1023.4
03 11.06 З 6
{7}
н/о н/о -0.2 -2.0 88 -7 -7 1024.9 1023.3
04 11.06 З 6
{7}
н/о н/о +0.1 -2.1 85 -6 -6 1024.7 1023.1
05 11.06 З 7
{8}
н/о н/о +0.2 -1.8 86 -7 -7 1024.8 1023.3
06 11.06 З 5
{8}
н/о н/о +0.9 -1.3 85 -5 -5 1024.8 1023.2
07 11.06 З 5
{6}
н/о н/о +1.2 -1.7 81 -4 -4 1024.9 1023.3
08 11.06 З 5
{5}
н/о н/о +1.1 -1.6 82 -5 -5 1025.1 1023.5
09 11.06 З 5
{6}
н/о н/о +1.1 -1.1 85 -5 -5 1025.4 1023.8
10 11.06 З 4
{6}
н/о н/о +1.3 -0.9 85 -4 -4 1025.4 1023.8
11 11.06 З 5
{5}
н/о н/о +1.7 -0.9 83 -4 -4 1025.5 1023.9
12 11.06 З 4
{6}
н/о н/о +1.9 -0.7 83 -3 -3 1025.6 1024.0
13 11.06 З 3
{4}
н/о н/о +1.6 -0.3 87 -3 -3 1025.6 1024.0
15 11.06 СЗ 2
{4}
н/о н/о +2.9 -1.4 73 0 0 1025.6 1024.0
16 11.06 З 3
{4}
н/о н/о +3.0 -1.5 72 -1 -1 1025.6 1024.0
17 11.06 СЗ 2
{4}
н/о н/о +2.9 -1.8 71 0 0 1025.7 1024.1
18 11.06 СЗ 2 н/о н/о +2.6 -1.7 73 -0 -0 1025.6 1024.1
19 11.06 С 3
{3}
н/о н/о +2.2 -2.5 71 -2 -2 1025.5 1023.9
20 11.06 С 1
{3}
н/о н/о +1.5 -2.2 76 -0 -0 1025.6 1024.0
21 11.06 С 1
{3}
н/о н/о +1.1 -2.1 79 -1 -1 1025.7 1024.1
22 11.06 С 1
{2}
н/о н/о +0.4 -2.5 81 -1 -1 1025.8 1024.2
23 11.06 С 1
{2}
н/о н/о +0.1 -2.3 84 -2 -2 1026.1 1024.5
00 12.06 СЗ 1
{3}
н/о н/о 0.0 -1.7 88 -2 -2 1026.2 1024.6
01 12.06 СЗ 2
{3}
н/о н/о +0.2 -3.2 78 -3 -3 1026.2 1024.6
03 12.06 СЗ 1
{2}
н/о н/о +1.0 -3.8 70 -1 -1 1026.5 1024.9
04 12.06 С 3
{4}
н/о н/о +0.6 -4.6 68 -4 -4 1026.5 1024.9
05 12.06 С 3
{3}
н/о н/о 0.0 -3.1 80 -5 -5 1026.7 1025.1
07 12.06 СВ 1
{2}
н/о н/о +0.1 -3.4 77 -2 -2 1027.3 1025.7
08 12.06 СВ 2
{3}
н/о н/о +0.1 -3.3 78 -3 -3 1027.5 1025.9
09 12.06 СВ 1
{2}
н/о н/о +0.7 -3.0 76 -1 -1 1027.8 1026.2
10 12.06 СЗ 1
{2}
н/о н/о +1.2 -3.3 72 -0 -0 1028.1 1026.5
11 12.06 СЗ 1
{2}
н/о н/о +1.7 -3.5 68 0 0 1028.3 1026.7
12 12.06 СЗ 1
{3}
н/о н/о +2.1 -4.8 60 +1 +1 1028.2 1026.7
13 12.06 СЗ 1
{2}
н/о н/о +2.3 -5.1 58 +1 +1 1028.4 1026.8
14 12.06 штиль 0
{2}
н/о н/о +2.4 -5.9 54 +2 +2 1028.3 1026.7
15 12.06 штиль 0
{1}
н/о н/о +3.0 -6.4 50 +3 +3 1028.2 1026.6
16 12.06 штиль 0
{1}
н/о н/о +3.1 -6.3 50 +3 +3 1027.8 1026.2
17 12.06 ЮЗ 2
{3}
н/о н/о +2.7 -2.8 67 -0 -0 1027.4 1025.8
18 12.06 ЮЗ 5
{5}
н/о н/о +1.8 -3.3 69 -4 -4 1027.4 1025.8 -0.1 +4.0
19 12.06 З 6
{6}
н/о н/о +1.4 -2.2 77 -5 -5 1027.2 1025.6
20 12.06 З 5
{6}
н/о н/о +1.6 -1.1 82 -4 -4 1027.1 1025.5
21 12.06 З 5
{6}
н/о н/о +0.9 -0.4 91 -5 -5 1026.8 1025.2
22 12.06 З 5
{6}
н/о н/о +1.0 -0.4 90 -5 -5 1026.9 1025.3
23 12.06 З 5
{6}
н/о н/о +1.1 0.0 92 -5 -5 1026.4 1024.8
00 13.06 З 6
{7}
н/о н/о +1.4 -0.2 89 -5 -5 1025.8 1024.2
01 13.06 З 5
{7}
н/о н/о +1.2 +0.1 92 -5 -5 1025.1 1023.6
02 13.06 З 7
{7}
н/о н/о +2.2 -0.4 83 -4 -4 1024.5 1022.9
03 13.06 З 7
{7}
н/о н/о +1.7 -0.2 87 -5 -5 1024.2 1022.6
04 13.06 ЮЗ 8
{9}
н/о н/о +2.6 -0.7 79 -4 -4 1023.3 1021.7
05 13.06 ЮЗ 7
{8}
н/о н/о +2.6 -0.7 79 -4 -4 1022.7 1021.1
06 13.06 З 5
{9}
н/о н/о +2.0 -0.4 84 -4 -4 1021.7 1020.1 +0.3 +2.8
07 13.06 З 7
{10}
н/о н/о +2.9 -0.5 78 -3 -3 1020.8 1019.2
08 13.06 ЮЗ 5
{8}
н/о н/о +3.6 -0.9 72 -1 -1 1020.5 1018.9
09 13.06 З 10
{11}
н/о н/о +3.0 -0.6 77 -4 -4 1019.6 1018.1
10 13.06 З 11
{13}
н/о н/о +2.7 -0.6 79 -5 -5 1019.4 1017.9
11 13.06 З 9
{12}
н/о н/о +2.8 -0.5 79 -4 -4 1019.2 1017.6
12 13.06 З 9
{13}
н/о н/о +2.3 -0.3 83 -5 -5 1019.2 1017.6
13 13.06 СЗ 6
{12}
н/о н/о +1.8 -0.3 86 -4 -4 1019.2 1017.7
14 13.06 З 3
{8}
н/о н/о +3.3 0.0 79 -1 -1 1018.8 1017.2
15 13.06 СЗ 1
{4}
н/о н/о +4.3 -1.5 66 +3 +3 1018.6 1017.1
16 13.06 С 1
{2}
н/о н/о +3.1 -1.6 71 +2 +2 1018.2 1016.7
17 13.06 З 3
{5}
н/о н/о +2.4 -0.2 83 -2 -2 1018.0 1016.4
18 13.06 З 6
{12}
н/о н/о +2.7 0.0 82 -3 -3 1017.6 1016.1 +1.7 +4.7
19 13.06 З 6
{7}
н/о н/о +2.9 +0.1 82 -3 -3 1017.4 1015.8
20 13.06 З 5
{7}
н/о н/о +2.6 0.0 83 -3 -3 1017.4 1015.8
21 13.06 З 6
{7}
н/о н/о +2.4 +0.2 85 -4 -4 1017.2 1015.6
22 13.06 З 8
{9}
н/о н/о +2.2 +0.1 86 -5 -5 1016.9 1015.3
23 13.06 З 7
{10}
н/о н/о +2.6 +0.3 85 -4 -4 1016.3 1014.7
00 14.06 З 10
{11}
н/о н/о +2.7 +0.4 85 -5 -5 1015.7 1014.2
01 14.06 З 8
{12}
н/о н/о +2.2 +0.1 86 -5 -5 1015.4 1013.8
02 14.06 З 9
{11}
н/о н/о +3.3 +0.2 80 -3 -3 1014.9 1013.3
03 14.06 СЗ 7
{10}
н/о н/о +3.2 +0.6 83 -3 -3 1015.2 1013.7
04 14.06 СЗ 3
{9}
н/о н/о +3.2 -0.1 79 -1 -1 1016.1 1014.5
06 14.06 С 10 н/о н/о +1.6 -0.3 87 -6 -6 1016.2 1014.6
07 14.06 СЗ 6
{8}
н/о н/о +1.6 0.0 89 -5 -5 1016.6 1015.0
08 14.06
{9}
н/о н/о +2.3 +0.1 85 1016.9 1015.4
09 14.06 СЗ 4
{7}
н/о н/о +4.4 +0.9 78 0 0 1017.0 1015.4
10 14.06 З 4
{9}
н/о н/о +3.8 +0.7 80 -1 -1 1017.5 1015.9
11 14.06 СЗ 3
{7}
н/о н/о +4.4 +0.2 74 +1 +1 1017.4 1015.9
12 14.06 З 4
{9}
н/о н/о +5.5 +0.7 71 +2 +2 1017.4 1015.8
13 14.06 З 6
{7}
н/о н/о +4.4 +0.6 76 -1 -1 1016.7 1015.2
14 14.06 З 7
{9}
н/о н/о +4.2 +0.9 79 -2 -2 1016.1 1014.5
15 14.06 З 8
{11}
н/о н/о +3.1 +0.3 82 -3 -3 1015.4 1013.9
16 14.06 З 10
{11}
н/о н/о +4.5 +0.8 77 -2 -2 1014.8 1013.3
17 14.06 ЮЗ 8
{13}
н/о н/о +3.9 +0.6 79 -2 -2 1014.7 1013.1
18 14.06 ЮЗ 7
{13}
н/о н/о +2.9 +0.6 85 -3 -3 1014.2 1012.6 +1.4 +5.5
19 14.06 З 7
{12}
н/о н/о +4.7 +0.7 75 -1 -1 1014.1 1012.5
20 14.06 З 9
{10}
н/о н/о +4.0 +0.7 79 -2 -2 1013.0 1011.5
21 14.06 З 8
{11}
н/о н/о +3.3 +0.5 82 -3 -3 1012.4 1010.9
22 14.06 З 8
{9}
н/о н/о +2.8 +0.5 85 -4 -4 1011.8 1010.2
23 14.06 З 9
{10}
н/о н/о +3.6 +0.5 80 -3 -3 1011.2 1009.6
00 15.06 З 8
{12}
н/о н/о +4.0 +0.5 78 -2 -2 1010.9 1009.3
01 15.06 З 6
{9}
н/о н/о +4.1 +0.5 77 -1 -1 1010.5 1008.9
02 15.06 З 6
{7}
н/о н/о +4.2 +0.5 77 -1 -1 1009.7 1008.2
03 15.06 З 4
{6}
н/о н/о +4.6 +0.9 77 +1 +1 1009.3 1007.7
04 15.06 З 8
{10}
н/о н/о +4.8 +0.6 74 -1 -1 1008.2 1006.6
05 15.06 С 5
{10}
н/о н/о +3.6 +0.3 79 -1 -1 1008.5 1006.9
07 15.06 СЗ 6
{8}
н/о н/о +2.3 +0.2 86 -4 -4 1008.3 1006.7
08 15.06 СЗ 5
{7}
н/о н/о +3.0 +0.7 85 -2 -2 1007.9 1006.3
09 15.06
{9}
н/о н/о +3.8 +0.3 78 1007.6 1006.1
10 15.06 С 10
{13}
н/о н/о +2.4 +0.3 86 -5 -5 1008.0 1006.4
11 15.06 СЗ 9
{12}
н/о н/о +2.2 +0.3 87 -5 -5 1008.8 1007.2
12 15.06 С 5
{13}
н/о н/о +2.4 -0.5 81 -3 -3 1009.2 1007.6
13 15.06 С 8
{9}
н/о н/о +2.0 -0.6 83 -5 -5 1008.7 1007.1
14 15.06 С 10
{12}
н/о н/о +1.7 -0.9 83 -6 -6 1008.8 1007.3
15 15.06 С 11
{12}
н/о н/о +1.8 -1.1 81 -6 -6 1008.4 1006.8
16 15.06 С 8
{12}
н/о н/о +0.9 -0.8 88 -6 -6 1009.2 1007.6
17 15.06 С 9
{12}
н/о н/о +0.2 -0.9 92 -8 -8 1009.6 1008.0
19 15.06 СЗ 7
{10}
н/о н/о +0.7 -1.7 84 -6 -6 1009.9 1008.3
20 15.06 СЗ 8
{11}
н/о н/о +0.4 -1.7 86 -7 -7 1009.8 1008.2
21 15.06 С 13
{14}
н/о н/о +0.4 -2.0 84 -9 -9 1008.2 1006.7
22 15.06 С 10
{14}
н/о н/о +0.6 -1.8 84 -7 -7 1008.6 1007.0
23 15.06 СЗ 11
{13}
н/о н/о +0.5 -1.9 84 -8 -8 1008.2 1006.7
00 16.06 С 9
{14}
н/о н/о +0.8 -2.1 81 -7 -7 1008.5 1006.9
01 16.06 С 8
{11}
н/о н/о +0.8 -2.1 81 -6 -6 1008.5 1007.0
02 16.06 СЗ 9
{13}
н/о н/о +0.8 -1.7 83 -7 -7 1008.1 1006.5
03 16.06 С 11
{13}
н/о н/о +1.1 -1.9 80 -7 -7 1007.4 1005.8
04 16.06 С 6
{12}
н/о н/о +1.1 -1.8 81 -5 -5 1008.3 1006.7
05 16.06 СЗ 8
{12}
н/о н/о +1.5 -1.7 79 -5 -5 1007.8 1006.3
06 16.06 С 8
{13}
н/о н/о +1.4 -1.7 80 -6 -6 1007.8 1006.2 0.0 +1.7
07 16.06 С 9
{12}
н/о н/о +1.2 -1.8 80 -6 -6 1007.6 1006.0
08 16.06 С 11
{11}
н/о н/о +0.8 -2.1 81 -7 -7 1007.4 1005.9
09 16.06 С 9
{13}
н/о н/о +0.7 -1.8 83 -7 -7 1007.4 1005.8
11 16.06 С 10
{14}
н/о н/о +1.5 -2.1 77 -6 -6 1007.3 1005.7
12 16.06 С 5 н/о н/о +0.9 -1.8 82 -5 -5 1007.8 1006.2
13 16.06 С 7
{9}
н/о н/о +1.1 -1.8 81 -6 -6 1007.6 1006.0

 

Местоположение метеостанции Эдж (Норвегия): широта 78.25 долгота 22.82 высота над уровнем моря 14 м.

В архиве по умолчанию представлена погода на Эдже за последнюю неделю. Архивные данные за месяц целиком и за предыдущие месяцы, начиная с января 2011 года, Вы можете получить, выбрав интересующий диапазон дат из раскрывающегося списка и нажав кнопку "Ввод!".


*Определитесь, кто Вы:
робот инопланетянин человек

Внимание! Время в таблицах - всемирное. Для получения местного времени необходимо прибавить поправку, которая равна 1 ч.

Смотрите также архив погоды в соседних городах и на ближайших метеорологических станциях:

Погода в Пирамиде (Норвегия) (151 км)
Погода на Конгсёйа (Норвегия) (153 км)
Погода в Свальбард аэропорту (Норвегия) (166 км)
Погода в Баренцбурге (Шпицберген, Россия) (196 км)
Погода на Акселойа (Норвегия) (197 км)
Погода в Хопене (Норвегия) (201 км)
Погода на Хорнсунне (Норвегия) (222 км)
Погода на Верлегенхукен (Норвегия) (243 км)
Погода на Сёркаппёйа (Норвегия) (249 км)
Погода в Ню-Олесунн (Норвегия) (251 км)

Пояснения к столбцам:

Ветер - указаны скорость ветра в м/с - средняя за 10 мин, порывы в срок и между сроками (в фигурных скобках) и направление, откуда дует ветер: С - северный, СВ - северо-восточный, В - восточный, ЮВ - юго-восточный, Ю - южный, ЮЗ - юго-западный, З - западный, СЗ - северо-западный.
Видимость - горизонтальная дальность видимости в метрах или километрах. При видимости от 1 до 10 км при отсутствии осадков обычно наблюдается дымка, при ухудшении видимости до 1 км и менее - туман. В сухую погоду видимость может ухудшаться дымом, пылью или мглою.
Явления - указаны атмосферные явления, наблюдавшиеся в срок или в последний час перед сроком; фигурными скобками обозначены явления, наблюдавшиеся между сроками (за 1-3 часа до срока); квадратными скобками обозначены град или гололедные отложения с указанием их диаметра в мм.
Облачность - указаны через наклонную черту общая и нижняя облачность в баллах и высота нижней границы облаков в метрах; квадратными скобками обозначены формы облаков: Ci - перистые, Cs - перисто-слоистые, Cc - перисто-кучевые, Ac - высококучевые, As - высокослоистые, Sc - слоисто-кучевые, Ns - слоисто-дождевые, Cu - кучевые, Cb - кучево-дождевые. Подробнее классификацию облаков см. в Атласе облаков (PDF).
T - Температура воздуха - температура, измеренная на высоте 2 м над землей.
Td - Температура точки росы - температура, при понижении до которой содержащийся в воздухе водяной пар достигнет насыщения.
f - Относительная влажность воздуха - влажноcть воздуха, измеренная на высоте 2 м над землей.
Te - Эффективная температура - температура, которую ощущает одетый по сезону человек в тени. Характеристика душности погоды. При расчете учитывается влияние влажности воздуха и скорости ветра на теплоощущения человека.
Tes - Эффективная температура на солнце - температура, которую ощущает человек, с поправкой на солнечный нагрев. Характеристика знойности погоды. Зависит от высоты солнца над горизонтом, облачности и скорости ветра. Ночью, в пасмурную погоду, а также при ветре 12 м/с и более поправка равна нулю.
P - Атмосферное давление - приведенное к уровню моря атмосферное давление.
Po - Атмосферное давление - измеренное на уровне метеостанции атмосферное давление.
Tmin - Минимальная температура - минимум температуры воздуха на высоте 2 м над землей.
Tmax - Максимальная температура - максимум температуры воздуха на высоте 2 м над землей.
R - Количество осадков - Количество выпавших осадков за период времени, мм. При наведении курсора мыши на число - период времени, за который выпало указанное количество осадков.
R24 - Количество осадков - Количество выпавших осадков за 24 часа, мм.
S - Снежный покров - Высота снежного покрова, см. При наведении курсора мыши на число - состояние снежного покрова и степень покрытия местности в баллах.